Marshfield, WI

12:41 AM CDT on July 28, 2017 (GMT -0500)
Marshfield Municipal

Weather History for KMFI - March, 2013

Change the Weather History Date:

Thursday, March 14, 2013

  Actual Average Record
Temperature  
Mean Temperature 20 °F -  
Max Temperature 33 °F 38 °F 75 °F (2012)
Min Temperature 7 °F 20 °F -7 °F (1993)
Degree Days  
Heating Degree Days 45    
Moisture  
Dew Point 15 °F    
Average Humidity 76    
Maximum Humidity 88    
Minimum Humidity 57    
Precipitation  
Precipitation 0.00 in - - ()
Sea Level Pressure  
Sea Level Pressure 30.20 in    
Wind  
Wind Speed 4 mph (SW)    
Max Wind Speed 9 mph    
Max Gust Speed -    
Visibility 10 miles    
Events      
Averages and records for this station are not official NWS values.
T = Trace of Precipitation, MM = Missing Value Source: NWS Daily Summary

Daily Weather History Graph

Daily Weather History Graph

Search for Another Location

Airport or City:

Trip Planner

Search our weather history database for the weather conditions in past years. The results will help you decide how hot, cold, wet, or windy it might be!

Date:

Astronomy

Mar. 14, 2013 Rise Set
Actual Time 7:14 AM CDT 7:05 PM CDT
Civil Twilight 6:45 AM CDT 7:35 PM CDT
Nautical Twilight 6:11 AM CDT 8:08 PM CDT
Astronomical Twilight 5:37 AM CDT 8:43 PM CDT
Moon 8:19 AM CDT (3/14) 10:32 PM CDT (3/14)
Length of Visible Light 12h 49m
Length of Day
11h 51m
Waxing Crescent, 9% of the Moon is Illuminated
Mar 14
Waxing Crescent
Mar 19
First Quarter
Mar 27
Full
Apr 2
Last Quarter
Apr 10
New

Hourly Weather History & Observations

Time (CDT) Temp. Windchill Dew Point Humidity Pressure Visibility Wind Dir Wind Speed Gust Speed Precip Events Conditions
12:54 AM 18.0 °F 11.1 °F 5.0 °F 57% 30.31 in 10.0 mi West 4.6 mph - N/A   Clear
1:54 AM 17.1 °F 10.0 °F 6.1 °F 62% 30.30 in 10.0 mi West 4.6 mph - N/A   Clear
2:54 AM 12.0 °F - 3.9 °F 70% 30.30 in 10.0 mi Calm Calm - N/A   Clear
3:54 AM 14.0 °F 6.5 °F 7.0 °F 74% 30.28 in 10.0 mi West 4.6 mph - N/A   Clear
4:54 AM 10.9 °F 4.7 °F 6.1 °F 81% 30.26 in 10.0 mi West 3.5 mph - N/A   Clear
5:54 AM 7.0 °F - 3.0 °F 84% 30.27 in 10.0 mi Calm Calm - N/A   Clear
6:54 AM 10.0 °F - 6.1 °F 84% 30.27 in 9.0 mi Calm Calm - N/A   Partly Cloudy
7:54 AM 12.0 °F - 8.1 °F 84% 30.26 in 8.0 mi Calm Calm - N/A   Overcast
8:54 AM 16.0 °F 10.4 °F 10.0 °F 77% 30.26 in 9.0 mi SE 3.5 mph - N/A   Overcast
9:54 AM 19.0 °F - 12.0 °F 74% 30.27 in 10.0 mi Calm Calm - N/A   Overcast
10:54 AM 21.9 °F 14.5 °F 12.9 °F 68% 30.26 in 10.0 mi SSE 5.8 mph - N/A   Overcast
11:54 AM 24.1 °F 14.4 °F 14.0 °F 65% 30.22 in 10.0 mi SSE 9.2 mph - N/A   Overcast
12:54 PM 26.1 °F 18.4 °F 19.0 °F 75% 30.21 in 10.0 mi South 6.9 mph - N/A   Overcast
1:54 PM 28.0 °F 20.8 °F 21.0 °F 75% 30.16 in 10.0 mi SSE 6.9 mph - N/A   Overcast
2:54 PM 30.0 °F - 21.9 °F 72% 30.19 in 10.0 mi Calm Calm - N/A   Overcast
3:54 PM 30.9 °F - 23.0 °F 72% 30.17 in 10.0 mi Calm Calm - N/A   Overcast
4:54 PM 32.0 °F 27.5 °F 24.1 °F 73% 30.15 in 10.0 mi South 4.6 mph - N/A   Scattered Clouds
5:54 PM 33.1 °F 25.5 °F 25.0 °F 72% 30.13 in 10.0 mi SW 9.2 mph - N/A   Clear
6:54 PM 30.0 °F 24.1 °F 24.1 °F 79% 30.12 in 10.0 mi SSW 5.8 mph - N/A   Mostly Cloudy
7:54 PM 30.0 °F 24.1 °F 24.1 °F 79% 30.10 in 10.0 mi SW 5.8 mph - N/A   Scattered Clouds
8:54 PM 28.9 °F 22.8 °F 24.1 °F 82% 30.09 in 10.0 mi WSW 5.8 mph - N/A   Clear
9:54 PM 28.0 °F 22.8 °F 24.1 °F 85% 30.07 in 9.0 mi WSW 4.6 mph - N/A   Clear
10:54 PM 27.0 °F 19.5 °F 23.0 °F 85% 30.05 in 8.0 mi West 6.9 mph - N/A   Clear
11:54 PM 23.0 °F 18.4 °F 19.9 °F 88% 30.05 in 7.0 mi West 3.5 mph - N/A   Clear